Weather in Dossor

Kazakhstan     47˚31′49″N   52˚58′28″E
temp.,
°C
wind,
m/s
gust,
m/s
humid.,
%
clouds,
%
prec.,
mm/h
press.,
hPa
HPBL,
m
29 november, sun
sun2923:00−2˚se6117718 0.0 1040238
02:00−2˚se611780 0.0 1041265
05:00−2˚ese611765 0.0 1041253
08:00−2˚ese7127730 0.0 1041268
11:00se8126829 0.0 1043401
14:00+3˚se8116155 0.0 1042667
17:00+2˚ese6116732 0.0 1042312
20:00−1˚ese8137942 0.0 1042317
30 november, mon
mon3023:00−1˚ese7138869 0.0 1043363
02:00−1˚ese8148385 0.0 1043377
05:00−2˚ese7137671 0.0 1043367
08:00−3˚e7126981 0.0 1043374
11:00−3˚e8116091 0.0 1044437
14:00−1˚e81151100 0.0 1042537
17:00−2˚e8115899 0.0 1042535
20:00−4˚e8136895 0.0 1041479
1 december, tue
tue123:00−4˚e8136898 0.0 1041447
02:00−5˚e81268100 0.0 1041442
05:00−5˚e81267100 0.0 1040447
08:00−6˚e8116893 0.0 1039426
11:00−6˚e8116594 0.0 1040429
14:00−4˚e8115450 0.0 1038470
17:00−4˚e7105633 0.0 1037497
20:00−6˚e811651 0.0 1037439
2 december, wed
wed223:00−7˚e710671 0.0 1037368
02:00−8˚e79681 0.0 1037333
05:00−8˚e69711 0.0 1037322
08:00−9˚e69700 0.0 1037275
11:00−9˚e67620 0.0 1037291
14:00−5˚ene56470 0.0 1036406
17:00−5˚ne56510 0.0 1035405
20:00−7˚ene68660 0.0 1036338
3 december, thu
thu323:00−8˚ene57700 0.0 1036300
02:00−9˚ne46740 0.0 1036260
05:00−9˚ne46770 0.0 1036261
08:00−10˚ne56780 0.0 1036270
11:00−9˚ne56700 0.0 1037275
14:00−7˚nne56550 0.0 1036405
17:00−7˚nne67560 0.0 1036402
20:00−9˚ne67650 0.0 1036342